Date,TemperatureHighF,TemperatureAvgF,TemperatureLowF,DewpointHighF,DewpointAvgF,DewpointLowF,HumidityHigh,HumidityAvg,HumidityLow,PressureMaxIn,PressureMinIn,WindSpeedMaxMPH,WindSpeedAvgMPH,GustSpeedMaxMPH,PrecipitationSumIn
2013-1-1,37,34,27,37,33,24,98,94,88,30.17,29.98,9,4,12,0.01
2013-1-2,34,26,20,25,21,17,93,82,59,30.26,30.16,7,1,10,0.00
2013-1-3,41,28,17,30,23,16,95,84,64,30.39,30.21,8,1,10,0.00
2013-1-4,45,30,20,32,25,18,96,83,55,30.44,30.35,7,1,11,0.00
2013-1-5,44,34,22,33,28,21,96,80,62,30.36,30.20,5,1,9,0.00
2013-1-6,47,35,22,37,31,21,96,85,62,30.36,30.14,10,2,13,0.00
2013-1-7,45,30,19,31,24,18,95,83,56,30.44,30.20,5,1,7,0.00
2013-1-8,56,39,23,39,32,21,95,79,49,30.27,30.16,6,1,10,0.00
2013-1-9,54,49,43,50,46,37,97,88,80,30.37,30.20,7,2,13,0.06
2013-1-10,65,56,46,62,55,45,99,95,87,30.36,29.81,8,3,15,0.52
2013-1-11,66,59,52,62,54,48,97,83,61,29.96,29.83,11,3,17,0.11
2013-1-12,70,66,59,67,64,57,99,93,86,29.92,29.66,12,3,22,0.07
2013-1-13,69,40,27,65,38,24,97,93,80,30.24,29.65,10,4,16,0.64
2013-1-14,30,27,24,24,23,21,92,85,79,30.39,30.25,12,5,16,0.00
2013-1-15,31,28,24,29,25,22,95,90,83,30.28,30.02,11,5,14,0.00
2013-1-16,32,30,29,31,28,28,95,91,86,30.13,30.01,5,1,8,0.01
2013-1-17,47,35,26,37,30,24,95,84,68,30.43,30.08,11,3,20,0.87
2013-1-18,48,35,21,32,26,20,95,74,46,30.54,30.28,6,1,11,0.56
2013-1-19,57,46,36,35,32,27,76,60,42,30.27,30.05,16,4,20,0.23
2013-1-20,47,39,28,35,28,20,93,67,37,30.24,30.09,7,2,14,0.00
2013-1-21,36,28,22,22,18,14,84,67,46,30.30,30.17,8,2,12,0.00
2013-1-22,27,23,18,13,7,2,64,50,37,30.43,30.30,7,2,12,0.00
2013-1-23,49,32,18,33,23,9,93,70,50,30.35,30.11,8,1,10,0.00
2013-1-24,35,30,23,32,17,12,92,61,46,30.48,30.20,10,4,17,0.00
2013-1-25,35,30,24,32,25,13,96,83,47,30.21,30.06,7,1,11,0.13
2013-1-26,46,34,23,33,27,22,97,78,50,30.32,30.21,5,1,9,0.01
2013-1-27,50,40,28,45,37,25,96,89,80,30.29,30.09,7,1,10,0.08
2013-1-28,62,56,50,58,52,43,94,86,68,30.11,30.00,8,3,17,0.16
2013-1-29,71,64,58,64,60,55,93,87,77,30.00,29.39,14,5,27,0.04
2013-1-30,59,47,33,54,43,24,98,84,69,29.91,29.40,12,4,22,1.03
2013-1-31,44,34,22,33,26,18,94,72,54,30.27,29.90,8,3,18,0.37
2013-2-1,27,21,12,21,13,7,87,74,61,30.50,30.27,8,1,11,0.01
2013-2-2,41,33,23,35,27,18,92,78,59,30.29,30.06,7,2,13,0.01
2013-2-3,45,36,28,35,29,23,94,77,52,30.13,29.98,9,2,14,0.01
2013-2-4,50,40,28,42,34,24,92,80,50,30.07,29.86,7,2,16,0.06
2013-2-5,57,45,35,44,40,34,96,85,52,30.04,29.88,6,1,12,0.00
2013-2-6,53,42,32,37,34,30,97,75,45,30.20,30.04,6,1,10,0.01
2013-2-7,66,52,38,53,44,33,97,74,57,30.05,29.81,9,1,12,0.32
2013-2-8,52,41,34,51,36,29,96,84,74,30.31,29.85,12,6,19,0.08
2013-2-9,50,40,32,36,32,28,86,73,50,30.33,30.04,9,2,13,0.00
2013-2-10,57,52,46,55,46,35,95,80,58,30.03,29.68,11,4,23,0.52
2013-2-11,56,45,32,55,35,30,94,71,46,30.11,29.83,8,2,14,0.00
2013-2-12,47,35,27,35,30,26,97,86,57,30.11,30.04,5,1,9,0.00
2013-2-19,44,36,28,26,22,17,76,57,44,30.25,30.10,10,3,20,0.00
2013-2-20,33,28,22,20,18,15,82,66,53,30.36,30.23,9,3,11,0.00
2013-2-21,39,33,26,38,27,20,97,80,56,30.26,29.82,14,4,23,0.34
2013-2-22,45,40,33,42,38,31,98,90,80,30.04,29.81,9,3,16,0.17
2013-2-23,46,35,27,33,28,26,94,79,56,30.04,29.93,7,2,10,0.31
2013-2-24,52,38,24,32,27,22,94,69,42,30.13,29.97,7,2,12,0.00
2013-2-25,59,49,34,47,33,27,90,57,36,30.00,29.41,13,5,18,0.12
2013-2-26,50,45,38,49,42,36,97,90,78,29.67,29.31,13,5,22,0.30
2013-2-27,39,38,35,36,33,32,93,84,77,29.88,29.68,11,4,15,0.01
2013-2-28,38,35,33,33,31,28,94,84,76,30.06,29.87,9,2,13,0.02
2013-3-1,38,34,32,36,32,30,96,94,90,30.09,30.02,7,2,11,0.11
2013-3-2,33,31,28,30,28,24,95,88,78,30.19,30.07,10,3,15,0.04
2013-3-3,42,33,22,32,24,19,89,70,45,30.19,30.07,7,2,12,0.00
2013-3-4,59,46,35,45,33,26,92,60,42,30.09,29.75,8,2,14,0.09
2013-3-5,50,42,33,50,38,23,98,87,62,30.05,29.72,12,4,24,0.40
2013-3-6,41,35,28,31,28,25,89,75,62,30.30,30.05,12,4,20,0.00
2013-3-7,44,34,26,33,29,24,94,80,61,30.39,30.29,7,2,10,0.00
2013-3-8,56,41,27,35,30,25,93,68,36,30.41,30.22,10,2,12,0.00
2013-3-9,66,53,40,41,35,31,77,53,33,30.22,29.91,8,2,13,0.00
2013-3-10,68,59,50,55,46,39,98,64,45,29.93,29.69,14,5,25,1.13
2013-3-11,53,43,34,52,39,31,97,85,74,29.99,29.72,9,3,20,0.01
2013-3-12,51,40,26,36,30,25,97,72,44,30.14,29.98,11,2,13,0.00
2013-3-13,44,37,27,30,25,22,82,63,45,30.39,30.14,10,3,18,0.00
2013-3-14,46,36,22,31,26,20,94,67,44,30.41,30.13,6,2,11,0.00
2013-3-15,76,56,34,52,42,26,86,60,41,30.12,29.77,12,4,21,0.00
2013-3-16,72,62,48,56,49,42,80,64,53,29.91,29.73,15,6,22,0.00
2013-3-17,47,44,42,45,42,39,97,92,80,29.97,29.69,11,4,15,0.36
2013-3-18,54,46,34,51,44,33,98,93,84,29.98,29.62,11,2,22,1.00
2013-3-19,52,42,32,36,28,15,98,63,24,30.18,29.99,10,2,14,0.00
2013-3-20,47,36,28,36,28,19,92,72,52,30.19,30.05,10,3,18,0.00
2013-3-21,41,32,19,26,20,16,92,64,41,30.10,29.95,9,2,13,0.00
2013-3-22,45,40,34,29,26,22,65,58,51,30.02,29.92,8,2,10,0.00
2013-3-23,56,47,40,45,37,28,95,70,56,29.97,29.65,13,4,15,0.47
2013-3-24,48,42,34,46,40,30,98,93,84,29.76,29.42,13,5,22,0.32
2013-3-25,38,34,32,32,29,27,95,83,74,30.15,29.76,12,5,22,0.01
2013-3-26,42,34,29,33,30,27,95,84,62,30.34,30.15,8,2,11,0.04
2013-3-27,50,37,23,34,28,22,96,73,45,30.40,30.28,8,1,11,0.00
2013-3-28,60,47,36,44,36,32,91,69,42,30.35,30.22,6,1,9,0.00
2013-3-29,55,49,42,48,44,38,95,83,64,30.25,30.14,6,2,11,0.35
2013-3-30,53,47,37,51,46,37,99,95,83,30.17,29.89,5,1,8,0.31
2013-3-31,61,53,42,53,50,41,99,90,68,29.92,29.84,6,1,11,0.05
2013-4-1,58,47,38,45,38,30,99,73,51,30.15,29.88,11,3,16,0.00
2013-4-2,46,42,37,32,27,21,73,55,39,30.27,30.15,7,2,12,0.00
2013-4-3,54,45,34,29,25,22,69,47,32,30.30,30.15,18,5,21,0.00
2013-4-4,48,44,40,45,36,24,96,75,42,30.15,29.98,8,2,13,0.18
2013-4-5,67,51,32,44,38,31,99,68,34,30.11,30.01,9,2,13,0.00
2013-4-6,74,58,39,48,42,37,93,60,32,30.07,29.86,12,3,20,0.00
2013-4-7,72,64,56,58,53,44,87,67,53,29.97,29.89,8,3,16,0.00
2013-4-8,76,68,60,59,56,52,82,66,53,29.91,29.82,14,4,23,0.00
2013-4-9,77,69,58,67,62,54,89,78,68,29.98,29.85,13,3,18,0.00
2013-4-10,82,75,69,68,65,62,86,71,58,29.91,29.66,11,4,20,0.00
2013-4-11,73,58,45,65,57,44,98,96,71,29.70,29.56,7,2,14,2.72
2013-4-12,62,49,36,46,40,35,98,75,54,29.99,29.71,11,3,19,0.00
2013-4-13,65,51,34,48,40,33,96,70,43,30.08,29.93,8,1,11,0.00
2013-4-14,73,59,46,54,48,42,89,70,45,29.93,29.75,12,3,21,0.00
2013-4-15,80,68,56,65,59,52,91,73,53,29.90,29.80,10,3,15,0.00
2013-4-16,80,71,66,72,67,61,95,86,75,30.02,29.87,9,2,16,0.00
2013-4-17,84,74,64,72,68,63,99,82,59,30.04,29.81,8,2,18,0.02
2013-4-18,81,73,50,68,65,49,96,77,60,29.82,29.55,13,6,29,1.41
2013-4-19,49,44,37,47,37,34,96,78,59,30.08,29.65,9,3,19,0.09
2013-4-20,60,48,32,45,36,32,98,69,40,30.29,30.08,11,2,13,0.00
2013-4-21,64,53,41,42,37,32,82,57,32,30.37,30.21,11,2,14,0.00
2013-4-22,73,58,41,54,46,38,90,66,42,30.22,30.01,9,2,16,0.00
2013-4-23,73,63,51,62,56,47,88,77,61,30.05,29.84,19,3,20,0.00
2013-4-24,67,47,35,60,43,34,96,87,65,30.26,29.80,15,3,16,0.88
2013-4-25,64,48,31,45,39,31,98,76,43,30.36,30.25,9,2,12,0.01
2013-4-26,53,49,41,50,47,40,97,92,76,30.41,30.21,8,1,11,0.46
2013-4-27,59,55,50,59,55,49,99,98,94,30.28,29.86,9,2,12,1.40
2013-4-28,61,57,48,60,55,47,99,93,82,29.92,29.84,7,1,11,0.00
2013-4-29,74,59,44,61,53,44,100,84,57,29.99,29.84,6,1,9,0.00
2013-4-30,81,65,49,64,56,49,99,76,44,29.95,29.87,6,1,9,0.00
2013-5-1,80,67,54,69,60,53,97,80,58,30.04,29.94,6,1,11,0.00
2013-5-2,74,66,56,64,60,55,97,82,61,30.10,29.97,6,1,10,0.00
2013-5-3,73,60,42,63,56,41,96,85,65,29.98,29.71,13,3,23,0.99
2013-5-4,56,46,40,45,42,39,97,86,59,29.94,29.84,6,2,11,0.41
2013-5-5,62,52,42,52,48,41,98,88,69,29.91,29.80,7,2,10,0.00
2013-5-6,63,56,52,59,54,51,98,94,83,29.89,29.77,10,3,14,0.18
2013-5-7,70,60,53,63,57,53,100,90,66,29.97,29.88,8,1,11,0.00
2013-5-8,79,66,53,63,58,53,99,79,49,30.01,29.92,9,1,12,0.00
2013-5-9,79,70,58,66,62,57,98,76,59,30.01,29.88,10,2,16,0.00
2013-5-10,74,66,62,69,64,60,100,91,77,29.91,29.79,7,1,14,0.90
2013-5-11,70,61,55,60,54,41,96,80,54,30.06,29.90,8,3,14,0.11
2013-5-12,63,52,40,44,39,33,97,66,37,30.18,30.07,8,2,14,0.00
2013-5-13,70,55,38,49,42,36,98,68,35,30.23,30.10,6,1,10,0.00
2013-5-14,84,70,50,67,57,47,90,66,46,30.10,29.90,12,4,20,0.00
2013-5-15,83,73,63,63,58,52,84,62,39,30.01,29.88,9,2,22,0.00
2013-5-16,78,71,63,70,62,59,89,75,64,29.95,29.86,7,1,10,0.00
2013-5-17,72,66,63,69,65,60,99,95,86,29.95,29.86,7,0,10,0.21
2013-5-18,81,71,65,73,68,65,100,90,67,29.96,29.87,5,1,8,0.00
2013-5-19,86,77,68,76,72,67,100,83,62,29.90,29.81,9,2,14,0.00
2013-5-20,86,78,68,75,71,67,97,81,65,29.91,29.77,10,3,16,0.00
2013-5-21,77,69,65,72,67,63,99,93,76,29.91,29.75,8,2,23,1.58
2013-5-22,77,68,62,68,64,61,99,87,64,29.81,29.70,9,2,15,0.16
2013-5-23,74,67,58,63,60,52,98,78,63,30.09,29.81,13,4,18,0.00
2013-5-24,69,59,49,53,50,46,95,75,46,30.30,30.09,8,3,16,0.00
2013-5-25,75,61,46,58,52,46,99,76,44,30.30,30.11,6,1,8,0.00
2013-5-26,81,68,55,67,60,53,97,77,47,30.16,30.04,6,1,11,0.00
2013-5-27,83,71,56,68,62,55,97,75,55,30.06,29.89,12,3,24,0.00
2013-5-28,85,77,69,71,65,59,86,69,48,29.99,29.89,11,4,21,0.00
2013-5-29,85,75,60,72,66,58,92,74,55,30.03,29.89,10,2,15,0.00
2013-5-30,85,77,68,75,70,66,99,81,63,30.00,29.87,23,3,35,0.63
2013-5-31,70,70,69,70,69,69,99,99,98,29.93,29.89,2,0,6,0.00
2013-6-1,70,68,66,68,67,66,99,97,93,29.89,29.79,4,1,8,0.00
2013-6-2,77,70,63,68,65,61,99,85,61,29.92,29.85,7,2,12,0.00
2013-6-3,75,66,58,65,60,58,98,83,61,30.00,29.90,8,3,12,0.00
2013-6-4,79,68,54,66,60,53,97,79,57,30.01,29.91,6,1,10,0.00
2013-6-5,84,74,62,73,68,62,98,82,59,29.92,29.75,7,1,8,0.00
2013-6-6,80,72,66,71,68,65,99,89,67,29.76,29.70,7,1,26,0.13
2013-6-7,79,70,62,70,64,61,96,83,65,29.83,29.71,7,2,12,0.00
2013-6-8,80,69,58,66,62,58,99,79,49,29.94,29.82,6,1,11,0.00
2013-6-9,80,68,60,75,67,60,99,95,78,29.96,29.76,6,1,19,0.96
2013-6-10,83,72,65,74,67,64,99,86,58,29.87,29.78,8,2,15,0.04
2013-6-11,91,78,63,80,72,63,100,81,61,29.95,29.86,6,1,10,0.00
2013-6-12,91,83,73,79,75,71,95,78,63,29.96,29.79,16,2,16,0.00
2013-6-13,85,78,64,77,71,63,96,80,68,29.90,29.76,13,4,18,0.00
2013-6-14,82,71,58,65,61,57,97,73,51,30.01,29.89,10,3,16,0.00
2013-6-15,86,74,60,70,65,60,99,77,52,30.04,29.92,8,1,11,0.00
2013-6-16,88,77,68,76,70,66,96,81,61,29.98,29.88,7,1,14,0.00
2013-6-17,86,74,68,78,71,68,99,91,68,29.90,29.82,8,1,15,0.43
2013-6-18,82,73,66,74,68,65,98,86,65,29.91,29.78,9,3,16,0.03
2013-6-19,86,75,65,73,68,65,98,80,54,30.00,29.89,7,2,10,0.04
2013-6-20,87,76,66,75,70,65,99,83,56,30.08,30.00,8,1,13,0.00
2013-6-21,88,78,68,76,71,67,99,82,57,30.12,30.02,9,2,12,0.00
2013-6-22,87,78,68,77,71,67,99,81,58,30.10,29.99,6,1,10,0.00
2013-6-23,87,77,66,74,69,66,99,80,57,30.06,29.95,8,1,11,0.00
2013-6-24,87,76,70,77,69,-100,98,84,65,30.08,29.97,9,-12,12,0.00
2013-6-25,89,81,73,79,75,72,97,82,65,30.00,29.85,8,2,14,0.00
2013-6-26,89,81,74,78,73,70,95,78,63,29.90,29.70,12,3,20,1.03
2013-6-27,92,85,72,80,75,70,97,74,50,29.83,29.73,11,2,13,0.01
2013-6-28,88,78,68,78,71,65,98,81,53,29.78,29.61,7,1,13,0.00
2013-6-29,84,74,63,70,65,62,98,77,56,29.67,29.56,11,1,21,0.20
2013-6-30,77,68,61,69,65,60,99,90,73,29.76,29.63,12,2,14,0.17
2013-7-1,74,68,65,68,66,64,98,93,80,29.83,29.73,8,2,16,0.08
2013-7-2,76,68,61,68,65,60,99,91,75,29.98,29.81,7,1,12,0.01
2013-7-3,80,68,58,69,64,58,100,88,62,30.05,29.97,6,1,7,0.00
2013-7-4,79,71,63,74,68,63,100,91,75,30.03,29.95,8,2,13,0.00
2013-7-5,81,73,67,73,69,66,98,89,73,30.03,29.95,4,0,8,0.01
2013-7-6,85,73,66,77,70,66,99,91,69,30.04,29.91,8,1,23,1.84
2013-7-7,87,75,64,76,70,64,99,87,62,30.04,29.96,7,1,10,0.00
2013-7-8,88,77,68,78,73,68,100,88,65,30.09,29.99,6,1,9,0.00
2013-7-9,90,81,70,80,75,70,100,84,64,30.06,29.92,8,1,11,0.00
2013-7-10,90,81,73,81,76,72,97,83,64,29.96,29.80,8,2,11,0.00
2013-7-11,87,76,64,77,70,62,100,82,59,29.94,29.87,11,3,18,0.00
2013-7-12,82,71,62,68,63,60,96,76,49,30.00,29.92,13,3,16,0.00
2013-7-13,83,72,59,68,63,59,99,77,49,29.99,29.92,8,2,13,0.00
2013-7-14,86,75,67,77,71,65,99,88,69,30.07,29.96,6,1,13,0.21
2013-7-15,88,78,70,78,74,70,99,89,69,30.17,30.06,6,1,12,0.05
2013-7-16,91,80,69,77,73,69,100,83,57,30.24,30.16,8,1,12,0.00
2013-7-17,93,82,71,78,75,71,100,80,55,30.25,30.11,7,2,11,0.00
2013-7-18,90,78,71,79,75,71,99,89,66,30.14,29.99,10,1,11,0.05
2013-7-19,89,78,67,78,73,67,100,86,65,30.01,29.87,5,1,10,0.01
2013-7-20,89,79,71,78,74,69,99,85,64,29.91,29.77,13,2,16,0.09
2013-7-21,89,76,70,79,73,70,99,91,66,29.90,29.79,6,1,15,0.27
2013-7-22,83,75,70,77,74,69,99,94,79,29.85,29.76,7,2,13,1.55
2013-7-23,87,78,70,76,73,67,99,86,60,29.86,29.73,13,2,24,0.00
2013-7-24,83,73,63,74,68,63,98,85,63,29.93,29.76,9,2,14,0.01
2013-7-25,80,69,60,67,63,59,98,82,54,30.02,29.91,8,2,14,0.00
2013-7-26,82,71,58,69,64,58,100,81,54,30.02,29.90,7,1,10,0.02
2013-7-27,83,73,63,72,68,61,99,84,68,29.96,29.81,8,1,12,0.00
2013-7-28,76,67,54,65,58,53,98,77,46,30.03,29.92,7,1,10,0.00
2013-7-29,78,68,59,68,63,58,99,87,64,30.12,30.02,5,0,9,0.00
2013-7-30,72,68,63,72,68,63,100,98,94,30.11,29.98,3,0,7,0.25
2013-7-31,85,76,69,79,73,69,100,93,77,29.99,29.86,5,1,10,0.02
2013-8-1,84,74,66,72,69,65,100,87,63,30.00,29.92,8,2,11,0.00
2013-8-2,84,73,61,72,68,61,100,84,57,29.98,29.90,5,1,9,0.00
2013-8-3,83,73,67,77,71,67,99,94,82,30.01,29.88,9,1,14,0.80
2013-8-4,81,74,67,73,68,64,100,83,63,30.07,29.98,8,2,11,0.01
2013-8-5,75,70,66,69,66,63,98,90,73,30.05,29.87,5,0,7,0.22
2013-8-6,82,75,69,78,74,69,100,95,86,29.91,29.83,8,0,9,0.04
2013-8-7,85,76,71,79,75,71,100,96,76,29.91,29.81,5,0,10,0.21
2013-8-8,83,75,70,79,74,70,100,97,88,29.90,29.83,4,0,18,0.34
2013-8-9,87,78,72,81,75,72,100,92,77,29.98,29.86,5,1,10,0.44
2013-8-10,81,75,71,76,74,71,100,96,81,30.05,29.95,5,1,6,0.73
2013-8-11,85,78,71,79,75,71,100,92,74,30.06,29.97,5,0,9,0.01
2013-8-12,82,74,71,80,74,71,100,98,87,30.01,29.83,7,1,15,0.36
2013-8-13,82,75,68,75,71,65,100,88,67,29.96,29.86,12,2,13,0.33
2013-8-14,74,66,57,64,58,55,96,77,56,30.07,29.96,11,4,15,0.00
2013-8-15,77,66,55,62,58,54,97,79,56,30.05,29.96,10,2,12,0.00
2013-8-16,76,69,61,69,64,59,94,86,76,30.03,29.96,6,2,9,0.01
2013-8-17,77,70,66,72,68,64,99,93,78,30.06,29.98,8,2,12,0.33
2013-8-18,76,70,64,72,68,64,100,95,81,30.09,30.00,7,1,8,0.66
2013-8-19,83,71,62,75,68,62,100,92,67,30.07,29.96,6,1,8,0.01
2013-8-20,86,75,65,77,71,65,100,90,68,30.05,29.96,5,0,8,0.00
2013-8-21,87,76,68,78,73,68,100,90,65,30.08,29.99,5,0,8,0.00
2013-8-22,88,78,68,78,73,68,100,87,63,30.07,29.95,6,1,9,0.00
2013-8-23,89,77,70,78,73,70,100,89,63,30.02,29.93,7,1,15,0.00
2013-8-24,87,77,67,76,72,67,100,84,64,30.13,30.02,8,1,10,0.00
2013-8-25,86,76,67,78,72,66,99,89,69,30.22,30.12,9,1,11,0.00
2013-8-26,86,76,67,77,72,67,100,89,69,30.21,30.06,6,1,10,0.00
2013-8-27,86,76,66,78,72,66,99,89,70,30.08,29.97,6,1,10,0.00
2013-8-28,89,78,68,78,72,68,100,86,58,30.01,29.93,5,1,9,0.00
2013-8-29,92,80,70,80,75,70,99,86,59,29.98,29.89,5,1,9,0.00
2013-8-30,92,81,71,79,75,71,100,85,57,29.93,29.82,7,1,9,0.00
2013-8-31,92,82,72,79,76,72,100,84,63,29.84,29.72,10,1,12,0.00
2013-9-1,79,74,68,76,72,67,99,93,83,29.85,29.73,12,2,24,0.81
2013-9-2,88,76,68,78,72,67,100,90,68,29.86,29.76,8,1,12,0.00
2013-9-3,83,72,63,71,66,63,99,84,56,30.00,29.86,7,2,11,0.00
2013-9-4,81,69,60,69,64,59,99,84,59,30.10,29.99,6,1,10,0.00
2013-9-5,82,69,58,70,65,58,100,86,62,30.13,30.06,10,1,10,0.00
2013-9-6,84,73,62,73,68,62,100,86,58,30.11,30.00,7,1,9,0.00
2013-9-7,87,74,62,75,69,62,100,87,62,30.03,29.90,6,1,10,0.00
2013-9-8,89,77,66,78,72,66,100,87,58,29.93,29.84,5,0,7,0.00
2013-9-9,90,79,73,79,74,69,99,86,64,29.96,29.87,7,1,10,0.00
2013-9-10,88,78,72,80,75,71,100,89,70,30.08,29.96,5,1,8,0.00
2013-9-11,89,76,69,80,73,68,100,90,69,30.10,30.00,9,1,16,0.21
2013-9-12,86,76,67,78,73,66,100,92,73,30.00,29.86,6,1,10,0.02
2013-9-13,75,66,56,66,59,54,99,79,56,29.99,29.91,11,3,16,0.00
2013-9-14,72,60,49,57,53,48,98,80,56,30.07,29.98,8,2,18,0.00
2013-9-15,79,63,50,64,57,49,100,83,50,30.05,30.00,9,1,9,0.00
2013-9-16,75,67,58,68,64,58,99,90,77,30.13,30.03,7,2,10,0.00
2013-9-17,80,70,63,70,66,62,98,88,64,30.14,30.01,6,1,9,0.00
2013-9-18,82,72,64,75,70,64,99,91,76,30.07,29.97,9,1,11,0.00
2013-9-19,84,75,67,77,71,67,100,89,72,30.04,29.90,8,2,13,0.00
2013-9-20,80,72,67,74,70,67,99,91,79,29.93,29.75,8,2,14,1.36
2013-9-21,72,64,53,67,58,52,99,83,54,29.85,29.73,12,4,19,0.04
2013-9-22,73,61,51,59,55,50,99,81,54,29.92,29.84,9,2,13,0.00
2013-9-23,76,62,49,63,57,48,99,85,58,29.96,29.87,7,1,12,0.00
2013-9-24,81,66,55,72,64,55,100,92,68,29.91,29.75,8,1,12,0.13
2013-9-25,79,68,60,72,66,60,100,93,71,29.82,29.74,6,1,11,0.00
2013-9-26,81,68,59,71,64,59,100,89,62,29.97,29.81,7,1,11,0.00
2013-9-27,79,66,54,66,60,53,100,84,52,30.06,29.97,5,1,9,0.00
2013-9-28,79,67,60,66,61,59,100,83,54,30.09,29.98,12,2,14,0.00
2013-9-29,66,63,61,63,62,60,100,94,84,30.01,29.93,9,1,10,1.15
2013-9-30,69,66,63,66,64,63,100,96,88,29.96,29.89,6,1,12,0.01
2013-10-1,75,69,63,72,68,62,99,96,87,30.02,29.93,5,0,9,0.14
2013-10-2,80,72,67,75,70,67,100,95,78,30.04,29.97,5,1,9,0.14
2013-10-3,82,73,67,72,69,66,100,87,62,30.01,29.90,9,1,13,0.01
2013-10-4,84,74,65,76,70,65,99,90,72,30.01,29.91,9,1,13,0.00
2013-10-5,83,74,68,75,72,68,100,92,70,29.98,29.79,11,2,12,0.12
2013-10-6,70,60,49,68,56,47,99,86,61,29.92,29.76,8,2,18,0.44
2013-10-7,66,54,45,54,49,44,99,86,61,30.09,29.88,10,2,13,0.00
2013-10-8,69,57,47,52,50,46,98,78,48,30.14,30.05,13,3,18,0.00
2013-10-9,77,62,50,68,58,49,99,90,68,30.11,30.03,7,0,10,0.00
2013-10-10,77,65,57,68,62,57,100,91,66,30.10,29.96,4,0,9,0.00
2013-10-11,79,64,54,67,60,55,100,88,55,30.02,29.92,6,1,8,0.00
2013-10-12,75,64,55,69,62,55,100,94,77,30.08,29.95,4,0,7,0.00
2013-10-13,76,66,56,65,60,50,100,83,64,30.22,30.09,10,3,14,0.00
2013-10-14,75,64,52,65,57,48,93,79,63,30.21,30.04,6,2,9,0.00
2013-10-15,70,66,61,67,64,61,99,95,84,30.04,29.88,7,1,13,0.10
2013-10-16,66,59,53,65,58,53,99,95,85,29.96,29.88,7,2,14,0.11
2013-10-17,63,54,45,54,51,44,99,90,66,29.96,29.88,7,1,12,0.03
2013-10-18,67,53,41,55,49,41,100,87,55,30.03,29.90,5,1,10,0.00
2013-10-19,56,49,38,53,46,38,100,91,70,30.02,29.84,11,2,16,0.06
2013-10-20,63,48,37,48,42,36,99,85,53,30.07,29.96,9,1,13,0.01
2013-10-21,67,48,38,53,44,38,99,87,60,30.01,29.93,8,1,16,0.00
2013-10-23,52,46,40,43,40,37,95,80,57,30.08,30.04,7,1,12,0.00
2013-10-24,51,43,32,44,38,30,96,82,52,30.35,30.07,8,2,13,0.00
2013-10-25,50,36,28,34,30,27,97,81,43,30.49,30.28,8,1,12,0.00
2013-10-26,59,44,29,48,38,29,98,81,58,30.28,30.03,10,2,15,0.00
2013-10-27,63,52,43,54,48,42,98,86,66,30.07,29.99,4,1,12,0.00
2013-10-28,68,58,49,58,54,48,99,90,67,30.19,30.01,5,0,7,0.00
2013-10-29,67,57,46,64,56,46,100,96,87,30.22,30.06,5,0,11,0.00
2013-10-30,76,69,64,67,64,61,93,84,74,30.10,29.94,12,3,16,0.00
2013-10-31,69,65,57,67,63,57,98,92,79,29.92,29.45,19,6,29,0.48
2013-11-1,69,57,48,57,51,46,99,83,46,29.80,29.62,8,2,18,0.01
2013-11-2,60,47,38,48,43,37,99,86,63,30.15,29.80,7,2,13,0.00
2013-11-3,58,43,32,45,37,32,99,81,47,30.28,30.14,8,1,10,0.00
2013-11-4,61,50,39,50,44,38,96,81,55,30.28,30.18,9,1,18,0.00
2013-11-5,67,56,48,51,47,44,94,72,52,30.29,30.11,6,1,11,0.00
2013-11-6,61,56,43,59,51,41,99,86,69,30.16,29.98,10,3,23,0.54
2013-11-7,53,42,33,41,35,31,97,80,45,30.34,30.17,9,3,12,0.01
2013-11-8,58,42,30,44,35,29,99,81,41,30.37,30.18,7,1,8,0.00
2013-11-9,62,47,34,43,38,33,97,76,45,30.22,30.11,12,2,22,0.00
2013-11-10,61,46,34,46,37,31,98,74,36,30.34,30.19,10,2,13,0.00
2013-11-11,67,49,31,46,37,30,97,69,28,30.27,30.12,15,1,25,0.00
2013-11-12,49,36,27,43,29,22,95,77,51,30.64,30.22,18,8,24,0.02
2013-11-13,44,31,21,29,23,19,94,77,38,30.69,30.40,5,1,7,0.00
2013-11-14,56,37,23,27,24,21,95,66,27,30.40,30.14,10,2,16,0.00
2013-11-15,53,46,33,51,40,26,97,79,57,30.14,30.01,5,1,11,0.00
2013-11-16,65,59,53,63,57,51,95,93,88,30.01,29.79,13,5,20,0.00
2013-11-17,73,64,52,69,61,40,98,89,60,29.89,29.56,14,5,29,1.44
2013-11-18,61,48,34,45,37,30,90,67,38,30.23,29.90,10,2,15,0.00
2013-11-19,50,41,34,33,31,29,89,69,49,30.28,30.15,8,3,15,0.00
2013-11-20,60,44,29,39,34,27,93,71,44,30.18,30.07,11,2,21,0.00
2013-11-21,65,55,48,57,50,39,98,82,68,30.19,30.11,10,3,15,0.18
2013-11-22,59,50,42,57,49,39,99,95,89,30.36,30.12,14,6,19,0.54
2013-11-23,44,36,24,39,27,16,93,70,37,30.59,30.34,15,8,24,0.00
2013-11-24,33,26,18,19,16,14,85,67,50,30.67,30.44,12,4,21,0.00
2013-11-25,42,33,29,33,25,18,96,74,49,30.43,30.14,9,1,14,0.01
2013-11-26,37,35,32,35,33,23,97,91,70,30.14,29.92,15,5,26,0.10
2013-11-27,32,24,16,23,15,11,91,69,46,30.36,30.06,14,5,21,0.00
2013-11-28,43,28,15,24,19,14,93,74,43,30.46,30.31,12,2,14,0.00
2013-11-29,51,34,21,35,27,20,95,78,46,30.56,30.41,6,1,8,0.00
2013-11-30,57,42,25,34,28,24,95,63,31,30.40,30.17,10,2,18,0.00
2013-12-1,54,50,46,42,37,31,85,64,52,30.17,29.88,7,1,12,0.00
2013-12-2,59,50,42,51,46,39,96,85,73,29.88,29.67,7,1,10,0.00
2013-12-3,63,54,48,55,51,47,100,91,70,29.73,29.64,7,1,11,0.00
2013-12-4,74,66,54,63,61,54,99,85,66,29.75,29.61,12,4,20,0.00
2013-12-5,68,45,32,65,43,30,98,91,81,30.13,29.74,12,6,18,0.14
2013-12-6,32,27,23,30,26,22,97,95,94,30.42,30.07,10,0,14,0.03
2013-12-7,26,22,18,23,20,16,94,90,83,30.59,30.36,9,3,16,0.00
2013-12-8,33,31,23,33,30,22,98,97,93,30.34,30.00,8,1,10,0.08
2013-12-9,32,30,26,31,27,22,98,92,82,30.26,30.09,7,2,13,0.02
2013-12-10,36,27,22,29,23,20,96,86,72,30.38,30.19,10,2,13,0.08
2013-12-11,41,28,18,35,24,16,96,86,69,30.58,30.35,8,3,15,0.16
2013-12-12,35,23,13,21,16,11,93,77,46,30.60,30.36,6,1,10,0.02
2013-12-13,42,32,18,35,25,17,100,79,55,30.36,29.93,6,1,9,0.19
2013-12-14,42,38,33,42,36,31,99,95,91,30.05,29.76,11,3,15,0.32
2013-12-15,33,31,30,31,29,27,93,89,85,30.21,30.05,10,4,15,0.00
2013-12-16,54,42,32,41,36,29,92,79,58,30.13,30.02,13,4,18,0.00
2013-12-17,48,38,25,39,33,24,97,83,56,30.26,30.05,14,2,14,0.00
2013-12-18,52,38,21,34,26,19,96,68,34,30.32,30.07,8,2,18,0.00
2013-12-19,61,53,43,51,44,34,83,73,60,30.10,29.90,16,5,23,0.00
2013-12-20,64,61,57,62,57,50,97,88,75,29.91,29.78,13,6,20,0.24
2013-12-21,72,65,53,66,62,52,99,92,78,29.79,29.39,14,6,31,2.52
2013-12-22,52,45,35,51,44,33,99,95,87,30.16,29.58,10,4,15,0.02
2013-12-23,35,32,26,33,27,23,92,84,74,30.46,30.16,8,4,13,0.00
2013-12-24,28,23,17,23,16,12,87,76,56,30.60,30.41,9,3,16,0.00
2013-12-25,44,31,18,30,23,15,92,73,50,30.41,30.26,10,2,12,0.00
2013-12-26,44,32,22,32,27,21,97,85,55,30.41,30.28,5,1,11,0.00
2013-12-27,52,34,22,36,28,20,96,81,51,30.44,30.31,8,1,9,0.00
2013-12-28,46,36,25,38,32,24,97,84,62,30.32,29.95,4,0,7,0.06
2013-12-29,52,40,29,45,37,26,99,90,75,30.16,29.90,12,4,20,0.14
2013-12-30,30,26,20,26,22,18,95,85,75,30.30,30.16,11,3,12,0.00
2013-12-31,42,30,20,30,24,18,94,80,58,30.43,30.27,6,1,9,0.00
2014-1-1,50,37,23,40,30,21,96,78,50,30.27,29.91,10,2,12,0.10
2014-1-2,40,28,17,40,24,13,98,86,73,30.41,29.85,18,6,23,0.05